Mora, MN

7:34 AM CST on December 04, 2016 (GMT -0600)
Mora Municipal

Weather History for KJMR - September, 2012

Change the Weather History Date:

Wednesday, September 26, 2012

  Actual Average Record
Temperature  
Mean Temperature 46 °F -  
Max Temperature 60 °F 68 °F 82 °F (1974)
Min Temperature 32 °F 39 °F 10 °F (2004)
Degree Days  
Heating Degree Days 19    
Moisture  
Dew Point 32 °F    
Average Humidity 68    
Maximum Humidity 100    
Minimum Humidity 34    
Precipitation  
Precipitation 0.00 in - - ()
Sea Level Pressure  
Sea Level Pressure 30.13 in    
Wind  
Wind Speed 2 mph (North)    
Max Wind Speed 7 mph    
Max Gust Speed -    
Visibility 10 miles    
Events      
Averages and records for this station are not official NWS values.
T = Trace of Precipitation, MM = Missing Value Source: NWS Daily Summary

Daily Weather History Graph

Daily Weather History Graph

Search for Another Location

Airport or City:

Trip Planner

Search our weather history database for the weather conditions in past years. The results will help you decide how hot, cold, wet, or windy it might be!

Date:

Astronomy

Sep. 26, 2012 Rise Set
Actual Time 7:05 AM CDT 7:01 PM CDT
Civil Twilight 6:36 AM CDT 7:31 PM CDT
Nautical Twilight 6:01 AM CDT 8:06 PM CDT
Astronomical Twilight 5:25 AM CDT 8:41 PM CDT
Moon 5:09 PM CDT (9/26) 3:22 AM CDT (9/26)
Length of Visible Light 12h 55m
Length of Day
11h 56m
Waxing Gibbous, 88% of the Moon is Illuminated
Sep 26
Waxing Gibbous
Sep 29
Full
Oct 8
Last Quarter
Oct 15
New
Oct 21
First Quarter

Hourly Weather History & Observations

Time (CDT) Temp. Windchill Dew Point Humidity Pressure Visibility Wind Dir Wind Speed Gust Speed Precip Events Conditions
12:00 AM 35.6 °F - 32.0 °F 87% 30.00 in 10.0 mi Calm Calm - N/A   Clear
12:20 AM 35.6 °F 32.8 °F 32.0 °F 87% 30.01 in 10.0 mi NNW 3.5 mph - N/A   Clear
12:40 AM 35.6 °F 32.8 °F 32.0 °F 87% 30.01 in 10.0 mi North 3.5 mph - N/A   Clear
1:00 AM 35.6 °F - 32.0 °F 87% 30.01 in 10.0 mi Calm Calm - N/A   Clear
1:20 AM 33.8 °F 30.8 °F 32.0 °F 93% 30.02 in 10.0 mi North 3.5 mph - N/A   Clear
1:40 AM 35.6 °F 32.8 °F 32.0 °F 87% 30.02 in 10.0 mi North 3.5 mph - N/A   Clear
2:00 AM 35.6 °F 31.7 °F 32.0 °F 87% 30.01 in 10.0 mi North 4.6 mph - N/A   Clear
2:20 AM 35.6 °F 32.8 °F 32.0 °F 87% 30.01 in 10.0 mi North 3.5 mph - N/A   Clear
2:40 AM 35.6 °F - 32.0 °F 87% 30.02 in 10.0 mi Calm Calm - N/A   Clear
2:59 AM 35.6 °F - 32.0 °F 87% 30.02 in 10.0 mi Calm Calm - N/A   Clear
3:20 AM 35.6 °F - 32.0 °F 87% 30.04 in 10.0 mi Calm Calm - N/A   Clear
3:40 AM 35.6 °F - 32.0 °F 87% 30.05 in 10.0 mi Calm Calm - N/A   Clear
4:00 AM 33.8 °F - 32.0 °F 93% 30.05 in 10.0 mi Calm Calm - N/A   Clear
4:20 AM 32.0 °F - 30.2 °F 93% 30.06 in 10.0 mi Calm Calm - N/A   Clear
4:40 AM 32.0 °F - 30.2 °F 93% 30.07 in 10.0 mi Calm Calm - N/A   Clear
5:00 AM 32.0 °F - 30.2 °F 93% 30.07 in 10.0 mi Calm Calm - N/A   Clear
5:20 AM 32.0 °F - 30.2 °F 93% 30.08 in 10.0 mi Calm Calm - N/A   Scattered Clouds
5:40 AM 32.0 °F - 30.2 °F 93% 30.09 in 10.0 mi Calm Calm - N/A   Mostly Cloudy
6:00 AM 32.0 °F - 30.2 °F 93% 30.10 in 10.0 mi Calm Calm - N/A   Overcast
6:20 AM 32.0 °F - 30.2 °F 93% 30.10 in 10.0 mi Calm Calm - N/A   Mostly Cloudy
6:40 AM 32.0 °F 28.7 °F 32.0 °F 100% 30.11 in 10.0 mi NNW 3.5 mph - N/A   Overcast
7:00 AM 32.0 °F - 32.0 °F 100% 30.11 in 10.0 mi Calm Calm - N/A   Mostly Cloudy
7:40 AM 33.8 °F - 32.0 °F 93% 30.11 in 10.0 mi Calm Calm - N/A   Clear
7:59 AM 33.8 °F - 32.0 °F 93% 30.11 in 10.0 mi Calm Calm - N/A   Clear
8:20 AM 35.6 °F - 33.8 °F 93% 30.13 in 10.0 mi Calm Calm - N/A   Scattered Clouds
8:40 AM 37.4 °F - 35.6 °F 93% 30.14 in 10.0 mi Calm Calm - N/A   Mostly Cloudy
9:00 AM 39.2 °F - 35.6 °F 87% 30.14 in 10.0 mi Calm Calm - N/A   Mostly Cloudy
9:20 AM 42.8 °F - 37.4 °F 81% 30.14 in 10.0 mi Calm Calm - N/A   Mostly Cloudy
9:40 AM 44.6 °F - 37.4 °F 76% 30.16 in 10.0 mi Calm Calm - N/A   Mostly Cloudy
10:00 AM 46.4 °F 45.2 °F 37.4 °F 71% 30.16 in 10.0 mi NE 3.5 mph - N/A   Overcast
10:20 AM 50.0 °F - 37.4 °F 62% 30.17 in 10.0 mi ENE 5.8 mph - N/A   Overcast
10:40 AM 51.8 °F - 35.6 °F 54% 30.18 in 10.0 mi ENE 4.6 mph - N/A   Overcast
11:00 AM 51.8 °F - 33.8 °F 50% 30.17 in 10.0 mi Calm Calm - N/A   Overcast
11:20 AM 53.6 °F - 32.0 °F 44% 30.17 in 10.0 mi North 5.8 mph - N/A   Mostly Cloudy
11:40 AM 55.4 °F - 33.8 °F 44% 30.17 in 10.0 mi ENE 5.8 mph - N/A   Scattered Clouds
12:00 PM 55.4 °F - 32.0 °F 41% 30.17 in 10.0 mi North 3.5 mph - N/A   Clear
12:19 PM 55.4 °F - 32.0 °F 41% 30.17 in 10.0 mi NNW 4.6 mph - N/A   Clear
12:40 PM 55.4 °F - 32.0 °F 41% 30.17 in 10.0 mi North 3.5 mph - N/A   Mostly Cloudy
1:00 PM 55.4 °F - 32.0 °F 41% 30.17 in 10.0 mi NNW 6.9 mph - N/A   Scattered Clouds
1:20 PM 55.4 °F - 32.0 °F 41% 30.17 in 10.0 mi NE 4.6 mph - N/A   Scattered Clouds
1:40 PM 55.4 °F - 32.0 °F 41% 30.17 in 10.0 mi NNW 6.9 mph - N/A   Scattered Clouds
2:00 PM 57.2 °F - 30.2 °F 36% 30.16 in 10.0 mi ENE 6.9 mph - N/A   Scattered Clouds
2:20 PM 59.0 °F - 30.2 °F 34% 30.15 in 10.0 mi NW 6.9 mph - N/A   Clear
2:40 PM 59.0 °F - 30.2 °F 34% 30.15 in 10.0 mi Calm Calm - N/A   Clear
3:00 PM 59.0 °F - 30.2 °F 34% 30.15 in 10.0 mi ENE 6.9 mph - N/A   Clear
3:20 PM 60.8 °F - 32.0 °F 34% 30.15 in 10.0 mi NNW 6.9 mph - N/A   Clear
3:40 PM 59.0 °F - 30.2 °F 34% 30.15 in 10.0 mi Calm Calm - N/A   Clear
4:00 PM 59.0 °F - 30.2 °F 34% 30.15 in 10.0 mi WNW 3.5 mph - N/A   Clear
4:20 PM 60.8 °F - 32.0 °F 34% 30.15 in 10.0 mi North 4.6 mph - N/A   Clear
4:39 PM 59.0 °F - 30.2 °F 34% 30.15 in 10.0 mi WNW 5.8 mph - N/A   Clear
5:00 PM 59.0 °F - 32.0 °F 36% 30.15 in 10.0 mi NW 5.8 mph - N/A   Clear
5:20 PM 59.0 °F - 32.0 °F 36% 30.16 in 10.0 mi WNW 4.6 mph - N/A   Clear
5:40 PM 59.0 °F - 32.0 °F 36% 30.16 in 10.0 mi NNW 6.9 mph - N/A   Clear
6:00 PM 59.0 °F - 32.0 °F 36% 30.17 in 10.0 mi North 3.5 mph - N/A   Clear
6:20 PM 55.4 °F - 32.0 °F 41% 30.17 in 10.0 mi NNW 3.5 mph - N/A   Clear
6:40 PM 55.4 °F - 32.0 °F 41% 30.18 in 10.0 mi NNW 4.6 mph - N/A   Clear
7:00 PM 53.6 °F - 32.0 °F 44% 30.19 in 10.0 mi NNW 3.5 mph - N/A   Clear
7:20 PM 50.0 °F - 33.8 °F 54% 30.19 in 10.0 mi Calm Calm - N/A   Clear
7:40 PM 44.6 °F - 33.8 °F 66% 30.20 in 10.0 mi Calm Calm - N/A   Clear
8:00 PM 42.8 °F - 33.8 °F 70% 30.20 in 10.0 mi Calm Calm - N/A   Clear
8:40 PM 42.8 °F - 33.8 °F 70% 30.21 in 10.0 mi Calm Calm - N/A   Clear
8:59 PM 39.2 °F - 32.0 °F 75% 30.22 in 10.0 mi Calm Calm - N/A   Clear
9:20 PM 37.4 °F - 32.0 °F 81% 30.22 in 10.0 mi Calm Calm - N/A   Clear
9:40 PM 37.4 °F - 32.0 °F 81% 30.22 in 10.0 mi Calm Calm - N/A   Clear
10:00 PM 35.6 °F - 32.0 °F 87% 30.22 in 10.0 mi Calm Calm - N/A   Clear
10:20 PM 35.6 °F - 32.0 °F 87% 30.22 in 10.0 mi Calm Calm - N/A   Clear
10:40 PM 35.6 °F - 32.0 °F 87% 30.22 in 10.0 mi Calm Calm - N/A   Clear
11:00 PM 35.6 °F - 32.0 °F 87% 30.23 in 10.0 mi Calm Calm - N/A   Clear
11:20 PM 35.6 °F - 32.0 °F 87% 30.23 in 10.0 mi Calm Calm - N/A   Clear
11:40 PM 33.8 °F - 32.0 °F 93% 30.24 in 10.0 mi Calm Calm - N/A   Clear